[[{"header":{"parameterUnit":"m.s-1","parameterCategory":2,"la1":30.2991,"la2":30.254,"lo1":-89.0895,"lo2":-89.0444,"dy":0.0017,"dx":0.0017,"nx":28,"ny":28,"refTime":"2024-07-05T09:00:00:Z","depth":"0","parameterNumber":2,"parameterNumberName":"U-component_of_CURRENTS"},"data":[0,0,0,0,0,0,0,0,0,0,0,0,0,0,0,0,0,0,0,0,0,0,0,0,0,0,0,0,0,0,0,0,0,0,0,0,0,0,0,0,0,0,0,0,0,0,0,0,0,0,0,0,0,0,0,0,0,0,0.3233,0.3234,0,0.3295,0.3295,0.3296,0.3281,0.328,0.3279,0.3278,0.3299,0.3301,0.3303,0,0,0,0,0,0,0,0,0,0,0,0,0,0.3104,0.3107,0.3233,0.3234,0.3234,0.3295,0.3295,0.3296,0.3281,0.328,0.3278,0.3277,0.3299,0.3301,0.3303,0,0,0,0,0,0,0,0,0,0,0,0,0,0.3162,0.3107,0.3233,0.3234,0.3235,0.3294,0.3296,0.3297,0.3282,0.328,0.3278,0.3276,0.3298,0.3301,0.3303,0.3354,0,0,0.3311,0.3312,0,0,0,0,0,0,0,0,0.3159,0.3167,0.3233,0.3234,0.3235,0.3279,0.3258,0.3314,0.3282,0.3264,0.3278,0.3276,0.329,0.3293,0.3309,0.3355,0.3356,0.3311,0.3313,0.3314,0.3314,0,0,0,0,0,0,0,0.3155,0.3164,0.3257,0.3234,0.3236,0.3233,0.3239,0.3269,0.3285,0.3265,0.3264,0.3272,0.329,0.3307,0.3309,0.3356,0.3311,0.3313,0.3315,0.3316,0.3475,0.3477,0,0,0,0,0,0,0.315,0.3161,0.3255,0.3259,0.3192,0.3237,0.3244,0.3266,0.3286,0.3287,0.3274,0.3271,0.3303,0.3307,0.331,0.3363,0.3314,0.3316,0.3318,0.3472,0.3475,0.3478,0,0,0,0,0,0,0.3148,0.3159,0.3253,0.321,0.3222,0.3241,0.3266,0.3268,0.3282,0.3293,0.3293,0.3284,0.3302,0.3307,0.3349,0.3364,0.3317,0.332,0.3469,0.3473,0.3477,0.3475,0,0,0,0,0,0,0.3144,0.3158,0.3177,0.3211,0.3224,0.3293,0.3268,0.3271,0.329,0.3287,0.3302,0.3302,0.3301,0.3345,0.3352,0.3367,0.3321,0.3465,0.3471,0.3475,0.3472,0.3479,0.3484,0,0,0,0,0,0.3139,0.3175,0.3178,0.319,0.3249,0.3295,0.3302,0.3308,0.3292,0.331,0.3323,0.3302,0.3382,0.335,0.3356,0.3372,0.3463,0.3469,0.3475,0.3469,0.3477,0.3484,0,0,0,0,0,0,0.3136,0.3178,0.3182,0.323,0.326,0.3292,0.3315,0.3314,0.3341,0.3336,0.3335,0.3338,0.3381,0.3394,0.3358,0.344,0.342,0.3428,0.3414,0.3422,0.3428,0.3446,0.3324,0,0,0,0,0,0.3144,0.3177,0.3214,0.3254,0.3272,0.3293,0.3313,0.3317,0.3342,0.3351,0.336,0.3384,0.3417,0.3429,0.3462,0.3506,0.3602,0.3527,0.3533,0.3538,0.3563,0.3748,0.3774,0.3498,0.3498,0.3498,0,0,0.3153,0.3181,0.32,0.3254,0.3279,0.3312,0.3301,0.3337,0.3359,0.3352,0.3388,0.3406,0.3438,0.3484,0.3505,0.349,0.367,0.3546,0.3549,0.3572,0.3757,0.3784,0.3808,0.3502,0.3502,0.3501,0,0,0.3188,0.3216,0.3253,0.3278,0.3317,0.3334,0.3343,0.3377,0.3389,0.3432,0.3433,0.3475,0.3512,0.3545,0.3564,0.3637,0.37,0.3634,0.3672,0.3851,0.3876,0.3898,0.4061,0.4098,0.3633,0.3633,0.3633,0,0.3196,0.3249,0.3271,0.3307,0.333,0.3342,0.3379,0.3402,0.3441,0.3473,0.3445,0.3543,0.3551,0.363,0.3641,0.3649,0.3762,0.3626,0.386,0.3884,0.3907,0.4069,0.411,0.3633,0.3633,0.3633,0.3633,0,0.3254,0.3291,0.3317,0.3363,0.3389,0.3428,0.3453,0.3482,0.349,0.3521,0.3597,0.3622,0.3691,0.3684,0.3674,0.3825,0.3858,0.3847,0.3834,0.3935,0.4099,0.4142,0.3634,0.3634,0.3634,0.3634,0,0,0.3286,0.3347,0.3351,0.3384,0.342,0.3456,0.3493,0.3556,0.3615,0.3635,0.3725,0.3756,0.3782,0.3811,0.3811,0.3929,0.4166,0.3949,0.3959,0.4101,0.4579,0.4497,0.4536,0.4203,0.421,0.4216,0.4629,0,0.3327,0.3399,0.3411,0.3476,0.3522,0.3534,0.3578,0.3629,0.3679,0.377,0.3805,0.3894,0.3828,0.3874,0.3981,0.4133,0.4279,0.4056,0.4471,0.4483,0.439,0.4583,0.4408,0.4753,0.4672,0.4679,0.4684,0,0.3378,0.3423,0.3494,0.3557,0.3578,0.361,0.3701,0.3746,0.3855,0.3898,0.398,0.4028,0.4178,0.4114,0.4444,0.4312,0.4458,0.4559,0.4578,0.4535,0.4481,0.4641,0.4834,0.4643,0.475,0.4745,0.474,0,0.3414,0.3477,0.354,0.356,0.3634,0.3668,0.3703,0.3796,0.3875,0.4009,0.4101,0.425,0.4376,0.4566,0.4728,0.4643,0.5108,0.5029,0.5097,0.5093,0.5042,0.502,0.5089,0.531,0.5309,0.5308,0.5307,0,0.3467,0.3522,0.3564,0.361,0.3699,0.3715,0.3834,0.3884,0.4001,0.4115,0.4187,0.4315,0.4508,0.4744,0.4861,0.5126,0.5245,0.5171,0.522,0.5033,0.5007,0.4911,0.4801,0.5324,0.532,0.5317,0.5315,0,0.3539,0.3553,0.3648,0.3714,0.3734,0.3807,0.3908,0.3984,0.409,0.4245,0.4301,0.449,0.4769,0.4953,0.5304,0.5329,0.5417,0.5618,0.5364,0.5372,0.5169,0.5066,0.5111,0.4974,0.5786,0.5787,0.5788,0,0.3607,0.3656,0.3738,0.3768,0.3806,0.3895,0.394,0.4029,0.4097,0.4329,0.4396,0.4702,0.4845,0.5308,0.5458,0.5718,0.5496,0.5678,0.5452,0.519,0.5116,0.4884,0.4746,0.5415,0.5413,0.5411,0.5409,0,0.3733,0.3748,0.3798,0.3856,0.39,0.3967,0.4024,0.4091,0.4186,0.4311,0.4472,0.4617,0.5013,0.5178,0.5494,0.5602,0.5359,0.5641,0.5476,0.4931,0.459,0.4467,0.5093,0.5391,0.5393,0.5394,0.5395,0.5396,0.3811,0.3855,0.3868,0.3911,0.3949,0.3958,0.3965,0.402,0.4107,0.42,0.4419,0.4575,0.4865,0.5257,0.5333,0.5311,0.5274,0.5179,0.5122,0.4945,0.4645,0.5203,0.5456,0.5458,0.5459,0.5461,0.5462,0,0.3844,0.3845,0.3901,0.3894,0.3875,0.3915,0.3937,0.3895,0.3902,0.4083,0.4195,0.446,0.4631,0.4829,0.4963,0.4826,0.4615,0.4684,0.4318,0.4244,0.4879,0.4682,0.4645,0.4645,0.4646,0.4646,0.4646,0.4646,0.385,0.3845,0.3839,0.3772,0.3761,0.3675,0.3649,0.3621,0.3691,0.3759,0.388,0.4051,0.4335,0.4501,0.4422,0.4343,0.3994,0.3859,0.3821,0.4233,0.4271,0.4308,0.4096,0.3937,0.3936,0.303,0.3023,0.3017]},{"header":{"parameterUnit":"m.s-1","parameterCategory":2,"la1":30.2991,"la2":30.254,"lo1":-89.0895,"lo2":-89.0444,"dy":0.0017,"dx":0.0017,"nx":28,"ny":28,"refTime":"2024-07-05T09:00:00:Z","depth":"0","parameterNumber":3,"parameterNumberName":"V-component_of_CURRENTS"},"data":[0,0,0,0,0,0,0,0,0,0,0,0,0,0,0,0,0,0,0,0,0,0,0,0,0,0,0,0,0,0,0,0,0,0,0,0,0,0,0,0,0,0,0,0,0,0,0,0,0,0,0,0,0,0,0,0,0,0,-0.0476,-0.0477,0,-0.0596,-0.0597,-0.0599,-0.0663,-0.0663,-0.0663,-0.0663,-0.0736,-0.0737,-0.0739,0,0,0,0,0,0,0,0,0,0,0,0,0,-0.0339,-0.0341,-0.0476,-0.0478,-0.0479,-0.0596,-0.0597,-0.0599,-0.0663,-0.0663,-0.0663,-0.0663,-0.0735,-0.0737,-0.0739,0,0,0,0,0,0,0,0,0,0,0,0,0,-0.0423,-0.0341,-0.0476,-0.0525,-0.053,-0.0595,-0.0597,-0.0599,-0.0663,-0.0663,-0.0663,-0.0663,-0.0734,-0.0737,-0.074,-0.0753,0,0,-0.0748,-0.0749,0,0,0,0,0,0,0,0,-0.0418,-0.0428,-0.0516,-0.0521,-0.0528,-0.0614,-0.0575,-0.0648,-0.0663,-0.0613,-0.0663,-0.0663,-0.069,-0.0697,-0.072,-0.0757,-0.076,-0.0748,-0.075,-0.0751,-0.0752,0,0,0,0,0,0,0,-0.0412,-0.0423,-0.0524,-0.0518,-0.0525,-0.0553,-0.0565,-0.059,-0.0649,-0.0617,-0.0622,-0.0635,-0.0693,-0.0717,-0.0722,-0.0761,-0.0748,-0.0751,-0.0752,-0.0753,-0.0772,-0.077,0,0,0,0,0,0,-0.0395,-0.0417,-0.052,-0.0527,-0.0472,-0.0555,-0.0568,-0.0587,-0.065,-0.066,-0.0635,-0.0637,-0.0712,-0.0719,-0.0725,-0.0703,-0.0751,-0.0754,-0.0755,-0.0773,-0.0771,-0.077,0,0,0,0,0,0,-0.0391,-0.0403,-0.0515,-0.0474,-0.0491,-0.0557,-0.0577,-0.0589,-0.061,-0.0663,-0.0672,-0.0643,-0.0713,-0.0721,-0.0734,-0.0707,-0.0755,-0.0757,-0.0774,-0.0772,-0.0771,-0.0685,0,0,0,0,0,0,-0.0387,-0.0401,-0.0404,-0.0473,-0.0492,-0.0541,-0.0577,-0.0591,-0.0617,-0.0622,-0.0673,-0.0681,-0.0714,-0.0729,-0.0736,-0.0712,-0.0759,-0.0776,-0.0773,-0.0771,-0.0689,-0.068,-0.0673,0,0,0,0,0,-0.0382,-0.0384,-0.0404,-0.0416,-0.0496,-0.054,-0.0552,-0.06,-0.0617,-0.062,-0.0651,-0.0679,-0.072,-0.0731,-0.0739,-0.0715,-0.0777,-0.0774,-0.0771,-0.0693,-0.0682,-0.0673,0,0,0,0,0,0,-0.0323,-0.0392,-0.0416,-0.0438,-0.0479,-0.055,-0.0559,-0.0592,-0.0622,-0.0623,-0.0671,-0.068,-0.0681,-0.0709,-0.0719,-0.0713,-0.075,-0.0749,-0.0687,-0.0678,-0.067,-0.0589,-0.0762,0,0,0,0,0,-0.0312,-0.0333,-0.0398,-0.0412,-0.043,-0.0492,-0.0515,-0.0548,-0.0587,-0.0602,-0.0636,-0.0663,-0.0678,-0.0686,-0.071,-0.0709,-0.0649,-0.0697,-0.0688,-0.0681,-0.062,-0.0482,-0.0453,-0.0761,-0.0761,-0.0761,0,0,-0.0292,-0.0333,-0.0344,-0.0401,-0.0437,-0.0454,-0.0506,-0.0534,-0.0538,-0.0602,-0.0608,-0.0639,-0.0673,-0.0671,-0.0673,-0.069,-0.0574,-0.0678,-0.0672,-0.0613,-0.0475,-0.0444,-0.0417,-0.076,-0.076,-0.076,0,0,-0.0259,-0.0298,-0.0303,-0.0332,-0.0382,-0.0421,-0.0423,-0.0485,-0.05,-0.0518,-0.0553,-0.0547,-0.0603,-0.0595,-0.0604,-0.0559,-0.0537,-0.0591,-0.048,-0.0348,-0.032,-0.0294,-0.0218,-0.0186,-0.0584,-0.0583,-0.0583,0,-0.023,-0.0245,-0.0307,-0.0315,-0.0319,-0.0398,-0.0385,-0.0422,-0.0476,-0.0444,-0.0505,-0.0493,-0.055,-0.0482,-0.0487,-0.0534,-0.0469,-0.052,-0.0331,-0.0304,-0.0278,-0.0206,-0.0172,-0.0579,-0.058,-0.058,-0.058,0,-0.0203,-0.0208,-0.0208,-0.0242,-0.0258,-0.026,-0.0311,-0.0312,-0.0344,-0.0356,-0.0303,-0.0358,-0.0321,-0.0369,-0.0429,-0.0286,-0.0305,-0.0337,-0.0344,-0.0241,-0.0175,-0.014,-0.0573,-0.0574,-0.0576,-0.0577,0,0,-0.0133,-0.0179,-0.0174,-0.0142,-0.0209,-0.0195,-0.0201,-0.0179,-0.01,-0.0168,-0.004,-0.0117,-0.0105,-0.0111,-0.0164,-0.0087,0.0083,-0.0136,-0.0131,-0.0039,0.0364,0.0231,0.0255,0.0097,0.0105,0.0111,0.0325,0,-0.0079,-0.005,-0.0102,-0.0041,-0.0009,-0.0059,-0.0026,-0.0014,-0.0006,0.0092,0.0067,0.0145,-0.002,0.0032,0.008,0.0108,0.0186,0.0027,0.0234,0.0241,0.013,0.0296,0.0205,0.0381,0.0359,0.0365,0.0369,0,-0.001,0.0006,0.007,0.0132,0.0146,0.0172,0.0285,0.03,0.038,0.0403,0.0467,0.0454,0.0542,0.0399,0.0528,0.0441,0.0424,0.0417,0.0425,0.0315,0.0176,0.0281,0.0444,0.0137,0.0422,0.0418,0.0414,0,0.0143,0.0154,0.0231,0.0239,0.0267,0.0332,0.0361,0.0429,0.0518,0.0646,0.0758,0.0815,0.0911,0.0914,0.0815,0.0726,0.0966,0.0847,0.0713,0.07,0.0675,0.0648,0.0597,0.0989,0.0989,0.0988,0.0988,0,0.0259,0.0339,0.0325,0.0383,0.053,0.05,0.0687,0.0719,0.0845,0.101,0.0962,0.1129,0.1059,0.1128,0.0999,0.0972,0.1121,0.0804,0.0787,0.0688,0.0661,0.0429,0.0281,0.0996,0.0995,0.0993,0.0992,0,0.0448,0.0417,0.0534,0.0581,0.0613,0.0738,0.0865,0.1002,0.1089,0.1319,0.1382,0.1464,0.1548,0.1427,0.1464,0.124,0.1043,0.114,0.0984,0.0942,0.046,0.0321,0.0371,0.026,0.1065,0.1063,0.1062,0,0.0557,0.0626,0.0702,0.0765,0.0798,0.0947,0.1049,0.1133,0.127,0.1519,0.1656,0.1803,0.1899,0.1856,0.1543,0.1351,0.1086,0.1075,0.0867,0.0484,0.032,0.0224,0.012,0.0861,0.0858,0.0856,0.0854,0,0.0766,0.078,0.0846,0.0965,0.1076,0.1218,0.1365,0.1507,0.1632,0.1825,0.2076,0.219,0.2112,0.1901,0.1568,0.1356,0.0826,0.1017,0.0724,0.0265,0.0073,-0.0063,0.0612,0.0835,0.0837,0.0838,0.0839,0.084,0.0911,0.0988,0.1033,0.1158,0.1283,0.1447,0.1581,0.1736,0.1972,0.2235,0.2344,0.2538,0.2156,0.1704,0.1369,0.0618,0.0706,0.0347,0.0249,0.0216,-0.0006,0.0574,0.0685,0.0686,0.0687,0.0688,0.0688,0,0.104,0.1086,0.1209,0.1335,0.1481,0.1521,0.1749,0.1876,0.2126,0.2409,0.261,0.2541,0.1991,0.1424,0.046,-0.0073,-0.0244,-0.035,-0.0504,-0.0543,0.0076,-0.0064,-0.0238,-0.0237,-0.0237,-0.0237,-0.0236,-0.0236,0.1095,0.1194,0.1236,0.1458,0.1561,0.1753,0.1876,0.2082,0.2299,0.2607,0.2756,0.2858,0.2356,0.0661,-0.0557,-0.0822,-0.1134,-0.1187,-0.1298,-0.0954,-0.0898,-0.0845,-0.1015,-0.1384,-0.1386,-0.1907,-0.1913,-0.1917]}],[{"header":{"parameterUnit":"m.s-1","parameterCategory":2,"la1":30.2991,"la2":30.254,"lo1":-89.0895,"lo2":-89.0444,"dy":0.0017,"dx":0.0017,"nx":28,"ny":28,"refTime":"2024-07-05T09:00:00:Z","depth":"2","parameterNumber":2,"parameterNumberName":"U-component_of_CURRENTS"},"data":[0,0,0,0,0,0,0,0,0,0,0,0,0,0,0,0,0,0,0,0,0,0,0,0,0,0,0,0,0,0,0,0,0,0,0,0,0,0,0,0,0,0,0,0,0,0,0,0,0,0,0,0,0,0,0,0,0,0,0.2157,0.2158,0,0.2189,0.2189,0.2189,0.2184,0.2183,0.2183,0.2183,0.2178,0.2178,0.2179,0,0,0,0,0,0,0,0,0,0,0,0,0,0.2071,0.2072,0.2157,0.2158,0.2158,0.2189,0.2189,0.2189,0.2184,0.2183,0.2183,0.2182,0.2178,0.2178,0.2179,0,0,0,0,0,0,0,0,0,0,0,0,0,0.2104,0.2073,0.2157,0.2161,0.2162,0.2189,0.2189,0.2189,0.2184,0.2183,0.2183,0.2182,0.2178,0.2178,0.2179,0.2191,0,0,0.218,0.218,0,0,0,0,0,0,0,0,0.2102,0.2107,0.216,0.2161,0.2162,0.2184,0.2157,0.2189,0.2184,0.2173,0.2183,0.2182,0.2179,0.2179,0.2183,0.2191,0.219,0.218,0.218,0.218,0.218,0,0,0,0,0,0,0,0.21,0.2105,0.2167,0.2161,0.2162,0.2154,0.2158,0.2163,0.2176,0.2174,0.2174,0.2182,0.2179,0.2183,0.2183,0.219,0.218,0.218,0.218,0.218,0.2253,0.2255,0,0,0,0,0,0,0.2103,0.2103,0.2166,0.2169,0.2133,0.2156,0.2161,0.2175,0.2177,0.2177,0.2182,0.2181,0.2183,0.2183,0.2183,0.2239,0.218,0.218,0.218,0.2252,0.2254,0.2256,0,0,0,0,0,0,0.2101,0.2108,0.2165,0.2138,0.2145,0.2159,0.2175,0.2176,0.2186,0.2184,0.2183,0.2192,0.2182,0.2182,0.2201,0.2237,0.218,0.2181,0.2249,0.2252,0.2255,0.2323,0,0,0,0,0,0,0.2098,0.2108,0.2121,0.2138,0.2147,0.2189,0.2176,0.2177,0.2193,0.2192,0.2192,0.219,0.2182,0.22,0.2201,0.2236,0.2181,0.2247,0.2251,0.2254,0.2319,0.2328,0.2336,0,0,0,0,0,0.2095,0.2109,0.2122,0.213,0.2165,0.219,0.2193,0.2199,0.2194,0.2204,0.2208,0.2191,0.2222,0.2202,0.2202,0.2238,0.2246,0.225,0.2254,0.2315,0.2326,0.2336,0,0,0,0,0,0,0.2073,0.2111,0.2125,0.2149,0.2174,0.219,0.22,0.2206,0.2217,0.2216,0.2207,0.2207,0.224,0.223,0.2208,0.227,0.2234,0.2238,0.228,0.2291,0.2299,0.2347,0.2181,0,0,0,0,0,0.2079,0.2103,0.2136,0.2157,0.2171,0.2189,0.22,0.2209,0.2221,0.2225,0.2228,0.2236,0.2257,0.2264,0.2275,0.2304,0.2377,0.233,0.2338,0.2345,0.2386,0.2567,0.2598,0.2269,0.2269,0.2268,0,0,0.2075,0.2101,0.2114,0.2155,0.2173,0.22,0.2194,0.2217,0.2242,0.2223,0.2253,0.2264,0.2272,0.231,0.2324,0.2304,0.2468,0.235,0.2357,0.2394,0.2575,0.2608,0.2637,0.2271,0.2271,0.227,0,0,0.208,0.2106,0.213,0.2155,0.2193,0.221,0.222,0.2247,0.2262,0.2294,0.2296,0.2339,0.2346,0.2381,0.2393,0.2458,0.2509,0.2449,0.2532,0.2707,0.2737,0.2764,0.2863,0.2899,0.2453,0.2453,0.2453,0,0.2075,0.2114,0.2138,0.2169,0.2195,0.2216,0.2248,0.2269,0.2299,0.2335,0.231,0.2414,0.2391,0.2495,0.2503,0.2481,0.2575,0.2488,0.2723,0.2752,0.2779,0.2875,0.2914,0.2457,0.2457,0.2456,0.2456,0,0.2099,0.2135,0.2149,0.2202,0.2231,0.226,0.2299,0.2335,0.2354,0.2389,0.2494,0.2513,0.26,0.2579,0.2548,0.2725,0.2725,0.2716,0.2705,0.2818,0.2909,0.2948,0.2463,0.2461,0.246,0.2459,0,0,0.2083,0.2153,0.2161,0.2201,0.2254,0.2286,0.2338,0.241,0.2493,0.253,0.266,0.2685,0.275,0.2774,0.2783,0.2893,0.3109,0.2886,0.2893,0.2997,0.3481,0.3227,0.3244,0.3169,0.3177,0.3183,0.3455,0,0.2099,0.2164,0.2194,0.2262,0.2303,0.2349,0.2414,0.2484,0.2554,0.2682,0.2753,0.2873,0.2814,0.2895,0.3008,0.3096,0.3224,0.3034,0.3347,0.3355,0.3128,0.3286,0.3016,0.3216,0.3494,0.35,0.3505,0,0.2122,0.2165,0.2236,0.2331,0.2355,0.2413,0.2556,0.2621,0.2783,0.285,0.3009,0.308,0.3257,0.3196,0.3479,0.3376,0.3452,0.3499,0.3512,0.3289,0.3176,0.3155,0.3277,0.3571,0.3566,0.3561,0.3557,0,0.2125,0.22,0.2264,0.2292,0.2399,0.2468,0.2544,0.2691,0.2786,0.3012,0.3125,0.3343,0.3477,0.3656,0.3695,0.366,0.3969,0.3942,0.3791,0.3772,0.3608,0.3558,0.4187,0.4186,0.4186,0.4185,0.4184,0,0.214,0.2197,0.2287,0.2329,0.2442,0.2516,0.2683,0.2779,0.2975,0.31,0.3258,0.3404,0.361,0.376,0.3824,0.39,0.4101,0.3856,0.3856,0.3609,0.3559,0.3913,0.3877,0.4195,0.4193,0.4191,0.4189,0,0.2144,0.2202,0.2282,0.2398,0.2455,0.2547,0.2744,0.2841,0.3046,0.3233,0.3319,0.353,0.3741,0.3867,0.4112,0.4026,0.4137,0.4101,0.3732,0.3681,0.3806,0.3772,0.4066,0.406,0.4055,0.4051,0.4047,0,0.2148,0.219,0.2319,0.2362,0.2427,0.258,0.2664,0.2868,0.2957,0.3266,0.3321,0.3598,0.3715,0.394,0.3914,0.4019,0.4097,0.3719,0.3584,0.3839,0.3812,0.3784,0.3757,0.341,0.3402,0.3395,0.3389,0,0.2121,0.2177,0.222,0.2317,0.2407,0.2523,0.2661,0.2749,0.296,0.313,0.3308,0.3456,0.3654,0.3604,0.3646,0.3647,0.368,0.3572,0.4066,0.3407,0.3223,0.3192,0.3189,0.3327,0.3333,0.3338,0.3341,0.3344,0.2069,0.2083,0.2127,0.2222,0.2319,0.2405,0.2461,0.2586,0.2736,0.2884,0.3084,0.3188,0.3239,0.3197,0.3156,0.3131,0.337,0.3208,0.3232,0.3264,0.3064,0.2873,0.2874,0.2878,0.2881,0.2883,0.2886,0,0.1935,0.1963,0.2018,0.2093,0.2133,0.2269,0.238,0.2389,0.2478,0.2621,0.2737,0.2524,0.2563,0.2709,0.259,0.2548,0.2569,0.2452,0.2481,0.2543,0.2598,0.2366,0.1992,0.1989,0.1987,0.1984,0,0,0.1845,0.1824,0.186,0.1875,0.1956,0.1977,0.2024,0.2069,0.2144,0.2101,0.2128,0.2313,0.2535,0.2161,0.2149,0.2075,0.2287,0.2,0.2718,0.281,0.2861,0.3036,0.2746,0,0,0,0,0]},{"header":{"parameterUnit":"m.s-1","parameterCategory":2,"la1":30.2991,"la2":30.254,"lo1":-89.0895,"lo2":-89.0444,"dy":0.0017,"dx":0.0017,"nx":28,"ny":28,"refTime":"2024-07-05T09:00:00:Z","depth":"2","parameterNumber":3,"parameterNumberName":"V-component_of_CURRENTS"},"data":[0,0,0,0,0,0,0,0,0,0,0,0,0,0,0,0,0,0,0,0,0,0,0,0,0,0,0,0,0,0,0,0,0,0,0,0,0,0,0,0,0,0,0,0,0,0,0,0,0,0,0,0,0,0,0,0,0,0,-0.0367,-0.0368,0,-0.0475,-0.0476,-0.0477,-0.0586,-0.0588,-0.0589,-0.059,-0.0708,-0.071,-0.0712,0,0,0,0,0,0,0,0,0,0,0,0,0,-0.0314,-0.0314,-0.0367,-0.0368,-0.0369,-0.0474,-0.0476,-0.0478,-0.0586,-0.0588,-0.0589,-0.0591,-0.0708,-0.071,-0.0712,0,0,0,0,0,0,0,0,0,0,0,0,0,-0.0372,-0.0314,-0.0366,-0.0435,-0.0442,-0.0474,-0.0476,-0.0478,-0.0586,-0.0588,-0.059,-0.0592,-0.0707,-0.071,-0.0713,-0.069,0,0,-0.0721,-0.0723,0,0,0,0,0,0,0,0,-0.0369,-0.0374,-0.0424,-0.043,-0.0438,-0.0518,-0.0501,-0.0549,-0.0585,-0.0533,-0.059,-0.0593,-0.0643,-0.0651,-0.0669,-0.0696,-0.0701,-0.0722,-0.0723,-0.0725,-0.0725,0,0,0,0,0,0,0,-0.0364,-0.037,-0.0411,-0.0425,-0.0434,-0.0481,-0.0491,-0.0511,-0.0576,-0.0537,-0.0545,-0.0554,-0.0648,-0.0666,-0.0673,-0.0702,-0.0722,-0.0724,-0.0726,-0.0727,-0.0778,-0.0777,0,0,0,0,0,0,-0.0343,-0.0366,-0.0407,-0.0414,-0.0406,-0.048,-0.0491,-0.0491,-0.0576,-0.0591,-0.0552,-0.0559,-0.066,-0.0669,-0.0677,-0.0712,-0.0725,-0.0727,-0.0729,-0.0778,-0.0778,-0.0777,0,0,0,0,0,0,-0.0341,-0.0345,-0.0403,-0.0392,-0.0403,-0.0478,-0.0478,-0.0492,-0.053,-0.0588,-0.0603,-0.0577,-0.0662,-0.0673,-0.0711,-0.0715,-0.0729,-0.0731,-0.0779,-0.0778,-0.0777,-0.0744,0,0,0,0,0,0,-0.0339,-0.0343,-0.0344,-0.039,-0.0402,-0.0423,-0.0476,-0.0493,-0.0531,-0.0541,-0.0613,-0.0626,-0.0665,-0.0707,-0.0714,-0.0719,-0.0733,-0.0779,-0.0778,-0.0778,-0.0746,-0.0743,-0.074,0,0,0,0,0,-0.0336,-0.0325,-0.0343,-0.0349,-0.0398,-0.0423,-0.0433,-0.0495,-0.053,-0.0538,-0.0594,-0.0624,-0.0708,-0.0709,-0.0717,-0.0724,-0.0779,-0.0778,-0.0778,-0.0747,-0.0743,-0.074,0,0,0,0,0,0,-0.0309,-0.0336,-0.0357,-0.0357,-0.0388,-0.0441,-0.0457,-0.0493,-0.0543,-0.0561,-0.062,-0.0635,-0.0669,-0.0693,-0.0693,-0.0734,-0.0748,-0.0749,-0.0721,-0.0718,-0.0715,-0.0689,-0.0736,0,0,0,0,0,-0.0297,-0.0298,-0.0332,-0.0335,-0.0346,-0.0401,-0.0423,-0.046,-0.0506,-0.0532,-0.0583,-0.0632,-0.0666,-0.0692,-0.0723,-0.0742,-0.0733,-0.075,-0.0747,-0.0745,-0.0729,-0.07,-0.0693,-0.0775,-0.0775,-0.0775,0,0,-0.0291,-0.0304,-0.0308,-0.0329,-0.0361,-0.0373,-0.042,-0.0448,-0.0469,-0.0533,-0.0581,-0.0622,-0.0667,-0.0698,-0.0714,-0.0724,-0.072,-0.0744,-0.0741,-0.0726,-0.0698,-0.069,-0.0683,-0.0774,-0.0774,-0.0774,0,0,-0.0273,-0.0285,-0.0282,-0.0298,-0.0333,-0.036,-0.0365,-0.0418,-0.0454,-0.049,-0.0545,-0.0585,-0.0641,-0.0677,-0.07,-0.0693,-0.0702,-0.0707,-0.0678,-0.0651,-0.0644,-0.0637,-0.0627,-0.062,-0.071,-0.071,-0.071,0,-0.0267,-0.0267,-0.0286,-0.0287,-0.0303,-0.0349,-0.0355,-0.0385,-0.0448,-0.0469,-0.0501,-0.0577,-0.0628,-0.0654,-0.0666,-0.0687,-0.0672,-0.0691,-0.0646,-0.0639,-0.0632,-0.0624,-0.0616,-0.0708,-0.0709,-0.0709,-0.0709,0,-0.0248,-0.0253,-0.0252,-0.0266,-0.0278,-0.0291,-0.0325,-0.0352,-0.0397,-0.0431,-0.0469,-0.0528,-0.0567,-0.0599,-0.0639,-0.0626,-0.0631,-0.0641,-0.0651,-0.0622,-0.0615,-0.0608,-0.0706,-0.0706,-0.0707,-0.0707,0,0,-0.0231,-0.0237,-0.0242,-0.0245,-0.0272,-0.0278,-0.0298,-0.0327,-0.033,-0.0393,-0.0391,-0.0477,-0.0498,-0.0523,-0.0569,-0.0568,-0.0536,-0.0586,-0.0585,-0.057,-0.0476,-0.058,-0.0583,-0.0529,-0.0528,-0.0526,-0.0493,0,-0.0222,-0.0213,-0.0221,-0.0222,-0.0225,-0.0256,-0.0261,-0.0289,-0.0316,-0.0318,-0.0375,-0.0382,-0.0468,-0.047,-0.0486,-0.0502,-0.0512,-0.0544,-0.0512,-0.0511,-0.0602,-0.0576,-0.0532,-0.0507,-0.0486,-0.0485,-0.0484,0,-0.0215,-0.0207,-0.0202,-0.0199,-0.0201,-0.0202,-0.0209,-0.0214,-0.0224,-0.0237,-0.0255,-0.0275,-0.0288,-0.0349,-0.0371,-0.038,-0.0428,-0.0456,-0.0455,-0.0555,-0.0601,-0.0531,-0.0494,-0.0471,-0.0472,-0.0473,-0.0474,0,-0.0207,-0.0202,-0.0195,-0.0197,-0.0192,-0.0194,-0.0191,-0.0198,-0.0176,-0.0158,-0.0124,-0.0153,-0.0139,-0.0181,-0.0286,-0.0295,-0.0309,-0.032,-0.0468,-0.0476,-0.0434,-0.0443,-0.0336,-0.0337,-0.0337,-0.0337,-0.0337,0,-0.0202,-0.0204,-0.0188,-0.0183,-0.0156,-0.0164,-0.0125,-0.0128,-0.0086,-0.0021,-0.0064,-0.0017,-0.0091,-0.0125,-0.022,-0.0333,-0.0257,-0.0452,-0.0469,-0.0427,-0.0435,-0.0401,-0.0408,-0.0335,-0.0336,-0.0336,-0.0336,0,-0.0211,-0.0205,-0.0188,-0.0166,-0.0151,-0.0132,-0.0068,-0.0027,0.0001,0.0099,0.0126,0.0116,0.0087,-0.0036,-0.0105,-0.0251,-0.0343,-0.042,-0.039,-0.0407,-0.0535,-0.0541,-0.0515,-0.0518,-0.0521,-0.0523,-0.0525,0,-0.0219,-0.0209,-0.0164,-0.0132,-0.0123,-0.0079,-0.0032,0.001,0.0081,0.0179,0.0244,0.0234,0.0273,0.0086,-0.0162,-0.0339,-0.0385,-0.0485,-0.0514,-0.0531,-0.055,-0.0552,-0.0555,-0.0433,-0.0434,-0.0435,-0.0436,0,-0.0217,-0.0202,-0.0169,-0.0093,-0.0042,0.0032,0.0109,0.0197,0.0284,0.0402,0.054,0.0594,0.037,0.0202,-0.0145,-0.0289,-0.0447,-0.0513,-0.0485,-0.0433,-0.0462,-0.0479,-0.0481,-0.0443,-0.0442,-0.0442,-0.0442,-0.0441,-0.0204,-0.017,-0.0102,-0.0025,0.0044,0.0176,0.0293,0.0419,0.0611,0.0843,0.0786,0.0879,0.0533,0.0162,-0.0147,-0.0502,-0.0493,-0.0595,-0.0587,-0.0579,-0.0614,-0.0651,-0.0673,-0.0673,-0.0674,-0.0674,-0.0675,0,-0.0148,-0.0096,-0.0029,0.0106,0.023,0.0235,0.0425,0.06,0.0897,0.103,0.1183,0.0898,0.0664,0.0282,-0.0237,-0.0567,-0.0548,-0.0662,-0.0551,-0.0543,-0.0536,-0.0565,-0.0612,-0.0612,-0.0613,-0.0613,0,0,-0.0108,-0.0005,0.005,0.0279,0.0369,0.0582,0.0721,0.0978,0.1135,0.1332,0.1356,0.1305,0.0791,0.042,-0.0027,-0.0298,-0.0332,-0.0352,-0.0372,-0.018,-0.0168,-0.0479,-0.0514,0,0,0,0,0]}],[{"header":{"parameterUnit":"m.s-1","parameterCategory":2,"la1":30.2991,"la2":30.254,"lo1":-89.0895,"lo2":-89.0444,"dy":0.0017,"dx":0.0017,"nx":28,"ny":28,"refTime":"2024-07-05T09:00:00:Z","depth":"4","parameterNumber":2,"parameterNumberName":"U-component_of_CURRENTS"},"data":[0,0,0,0,0,0,0,0,0,0,0,0,0,0,0,0,0,0,0,0,0,0,0,0,0,0,0,0,0,0,0,0,0,0,0,0,0,0,0,0,0,0,0,0,0,0,0,0,0,0,0,0,0,0,0,0,0,0,0.0854,0.0856,0,0.09,0.0899,0.0899,0.0921,0.0921,0.0922,0.0923,0.1038,0.104,0.1042,0,0,0,0,0,0,0,0,0,0,0,0,0,0.0707,0.0709,0.0854,0.0856,0.0857,0.09,0.0899,0.0899,0.092,0.0921,0.0923,0.0924,0.1037,0.104,0.1043,0,0,0,0,0,0,0,0,0,0,0,0,0,0.0754,0.071,0.0854,0.088,0.0884,0.09,0.0899,0.0899,0.092,0.0921,0.0923,0.0924,0.1037,0.104,0.1043,0.1037,0,0,0.1053,0.1055,0,0,0,0,0,0,0,0,0.0751,0.0758,0.0875,0.0879,0.0883,0.0915,0.089,0.0952,0.092,0.0896,0.0923,0.0925,0.1009,0.1015,0.1005,0.1042,0.1047,0.1054,0.1056,0.1057,0.1058,0,0,0,0,0,0,0,0.0748,0.0756,0.0862,0.0877,0.0882,0.0864,0.0871,0.09,0.0938,0.0898,0.0902,0.0923,0.101,0.1001,0.1008,0.1049,0.1053,0.1056,0.1058,0.106,0.1223,0.1226,0,0,0,0,0,0,0.0766,0.0753,0.0861,0.0864,0.083,0.0866,0.0874,0.0895,0.0936,0.0946,0.0922,0.0924,0.0995,0.1004,0.1012,0.1114,0.1057,0.106,0.1062,0.1221,0.1224,0.1226,0,0,0,0,0,0,0.0762,0.0775,0.0859,0.0818,0.0829,0.0869,0.0891,0.0895,0.093,0.0955,0.0965,0.0959,0.0996,0.1008,0.1076,0.1115,0.1062,0.1065,0.1218,0.1222,0.1225,0.125,0,0,0,0,0,0,0.0758,0.0773,0.0801,0.0819,0.0832,0.0899,0.0891,0.0896,0.0943,0.0947,0.0989,0.0998,0.0998,0.1071,0.1079,0.1119,0.1067,0.1215,0.122,0.1224,0.1246,0.1254,0.1261,0,0,0,0,0,0.0752,0.077,0.0801,0.0816,0.0866,0.0902,0.0906,0.0931,0.0944,0.0965,0.0997,0.0999,0.1105,0.1075,0.1084,0.1126,0.1213,0.1219,0.1224,0.1243,0.1253,0.126,0,0,0,0,0,0,0.0717,0.0776,0.081,0.0847,0.0895,0.091,0.0917,0.0955,0.0992,0.1005,0.1022,0.1034,0.1114,0.112,0.1087,0.119,0.1163,0.117,0.1175,0.1184,0.1191,0.121,0.107,0,0,0,0,0,0.0728,0.076,0.0818,0.0854,0.0866,0.0904,0.0926,0.0964,0.0998,0.1015,0.1033,0.1074,0.1134,0.116,0.1199,0.1247,0.1253,0.1285,0.1292,0.1297,0.1323,0.1356,0.1368,0.1244,0.1244,0.1244,0,0,0.0723,0.0765,0.0783,0.0851,0.0866,0.0904,0.0916,0.0965,0.1017,0.1024,0.1065,0.1105,0.1158,0.1214,0.125,0.1227,0.1334,0.1304,0.1308,0.1331,0.1363,0.1374,0.1385,0.1247,0.1247,0.1246,0,0,0.0719,0.0761,0.0783,0.0826,0.0896,0.0923,0.0954,0.0992,0.1023,0.1096,0.1117,0.1177,0.1241,0.1272,0.1308,0.1382,0.1379,0.1406,0.1446,0.1477,0.1487,0.1496,0.1499,0.1508,0.1397,0.1397,0.1397,0,0.0721,0.0766,0.0797,0.0834,0.0871,0.0938,0.0978,0.102,0.1087,0.1119,0.1125,0.1243,0.1272,0.1367,0.1394,0.1398,0.1411,0.1401,0.1484,0.1493,0.1501,0.1503,0.1513,0.1399,0.1399,0.1399,0.1398,0,0.0732,0.0784,0.0788,0.0863,0.0905,0.0952,0.1022,0.1069,0.1123,0.1174,0.128,0.1318,0.1389,0.1412,0.1433,0.152,0.1507,0.1492,0.1452,0.1515,0.1513,0.1523,0.1402,0.1401,0.14,0.14,0,0,0.0694,0.0784,0.0792,0.0836,0.0933,0.0967,0.1045,0.1133,0.1197,0.1271,0.1348,0.1447,0.1474,0.1518,0.1543,0.1576,0.1632,0.1569,0.157,0.1557,0.1695,0.1647,0.1652,0.1634,0.1637,0.1639,0.166,0,0.0701,0.0771,0.0821,0.0897,0.0929,0.1012,0.1075,0.1175,0.1254,0.1333,0.142,0.1522,0.1516,0.1576,0.1602,0.1648,0.1665,0.1628,0.1652,0.1653,0.159,0.1664,0.1646,0.1667,0.1669,0.1671,0.1672,0,0.0692,0.0748,0.0812,0.0922,0.094,0.101,0.1123,0.1202,0.1337,0.1413,0.1518,0.1583,0.1685,0.1665,0.1743,0.1725,0.172,0.1732,0.1732,0.1693,0.1625,0.1601,0.1689,0.1688,0.1686,0.1685,0.1684,0,0.0634,0.0741,0.0793,0.083,0.0955,0.1014,0.1103,0.1229,0.1297,0.1489,0.156,0.1678,0.177,0.179,0.1827,0.1795,0.1897,0.1834,0.1776,0.177,0.179,0.178,0.1876,0.1876,0.1876,0.1876,0.1875,0,0.0614,0.0657,0.0781,0.0813,0.09,0.1,0.1104,0.1224,0.1365,0.1461,0.1603,0.1689,0.1816,0.1878,0.1863,0.1869,0.1917,0.1813,0.179,0.1797,0.1789,0.1794,0.1785,0.1876,0.1876,0.1876,0.1876,0,0.0534,0.0612,0.0675,0.0815,0.0874,0.0939,0.1114,0.1179,0.1345,0.1477,0.1553,0.1734,0.1848,0.1918,0.199,0.1928,0.1931,0.1911,0.1933,0.1907,0.1758,0.175,0.1824,0.1823,0.1822,0.1821,0.182,0,0.05,0.052,0.0661,0.0706,0.0782,0.0903,0.0984,0.1172,0.1246,0.1477,0.1525,0.1715,0.1821,0.1865,0.1955,0.196,0.1932,0.1918,0.1826,0.1791,0.1762,0.1755,0.1748,0.1819,0.1819,0.1818,0.1818,0,0.0425,0.0468,0.0528,0.0627,0.0721,0.0809,0.0954,0.0997,0.1208,0.1353,0.1493,0.1594,0.173,0.1819,0.1888,0.1863,0.1925,0.1907,0.1906,0.1819,0.1786,0.1756,0.175,0.1815,0.1815,0.1816,0.1816,0,0.0365,0.038,0.0458,0.0546,0.0639,0.0706,0.0794,0.0915,0.1019,0.1282,0.1326,0.1527,0.1708,0.1768,0.18,0.1833,0.1775,0.1696,0.1705,0.171,0.1674,0.1615,0.1597,0,0,0,0,0,0.0312,0.0331,0.0381,0.0473,0.0551,0.0619,0.0764,0.0846,0.105,0.1114,0.1222,0.1348,0.1491,0.1585,0.1592,0.1727,0.1761,0.1728,0.1667,0.1797,0.18,0.1775,0,0,0,0,0,0,0.0277,0.0317,0.035,0.0392,0.0434,0.0522,0.0608,0.0741,0.0787,0.1001,0.1075,0.1259,0.1394,0.1464,0.1559,0.1591,0.1527,0.1856,0.1853,0.1794,0.1798,0.1801,0.1776,0,0,0,0,0]},{"header":{"parameterUnit":"m.s-1","parameterCategory":2,"la1":30.2991,"la2":30.254,"lo1":-89.0895,"lo2":-89.0444,"dy":0.0017,"dx":0.0017,"nx":28,"ny":28,"refTime":"2024-07-05T09:00:00:Z","depth":"4","parameterNumber":3,"parameterNumberName":"V-component_of_CURRENTS"},"data":[0,0,0,0,0,0,0,0,0,0,0,0,0,0,0,0,0,0,0,0,0,0,0,0,0,0,0,0,0,0,0,0,0,0,0,0,0,0,0,0,0,0,0,0,0,0,0,0,0,0,0,0,0,0,0,0,0,0,0.0357,0.0357,0,0.0317,0.0317,0.0316,0.0296,0.0296,0.0296,0.0296,0.0208,0.0206,0.0203,0,0,0,0,0,0,0,0,0,0,0,0,0,0.0354,0.0354,0.0357,0.0357,0.0356,0.0317,0.0316,0.0316,0.0296,0.0296,0.0296,0.0296,0.0209,0.0206,0.0203,0,0,0,0,0,0,0,0,0,0,0,0,0,0.0338,0.0355,0.0357,0.0342,0.0341,0.0317,0.0316,0.0316,0.0296,0.0296,0.0296,0.0296,0.021,0.0206,0.0203,0.0177,0,0,0.0192,0.019,0,0,0,0,0,0,0,0,0.0339,0.0338,0.0345,0.0343,0.0342,0.0313,0.0283,0.0267,0.0296,0.0311,0.0296,0.0296,0.0239,0.0233,0.0224,0.0173,0.0169,0.0191,0.0189,0.0188,0.0187,0,0,0,0,0,0,0,0.034,0.0339,0.034,0.0345,0.0343,0.0317,0.0315,0.028,0.0273,0.031,0.0309,0.0306,0.0238,0.0228,0.0222,0.0168,0.0191,0.0188,0.0186,0.0185,0.0078,0.0077,0,0,0,0,0,0,0.0351,0.034,0.0341,0.0339,0.0342,0.0317,0.0315,0.0321,0.0274,0.0268,0.0306,0.0306,0.0234,0.0226,0.0219,0.0192,0.0188,0.0184,0.0182,0.0078,0.0077,0.0077,0,0,0,0,0,0,0.0351,0.0352,0.0343,0.0339,0.0336,0.0318,0.0324,0.032,0.0316,0.0272,0.0265,0.0307,0.0234,0.0224,0.0189,0.0188,0.0183,0.0179,0.0079,0.0078,0.0077,0.0135,0,0,0,0,0,0,0.0351,0.0352,0.0364,0.034,0.0337,0.0335,0.0323,0.0319,0.0314,0.0313,0.027,0.0262,0.0233,0.0195,0.0185,0.0183,0.0176,0.008,0.0079,0.0077,0.0133,0.0136,0.0138,0,0,0,0,0,0.0351,0.0367,0.0365,0.0365,0.0353,0.0335,0.0331,0.0316,0.0315,0.0313,0.0282,0.0264,0.018,0.0191,0.0181,0.0177,0.008,0.0079,0.0077,0.0133,0.0135,0.0137,0,0,0,0,0,0,0.0368,0.0366,0.0363,0.0377,0.036,0.0332,0.0333,0.0322,0.0297,0.0298,0.0257,0.0246,0.0213,0.0184,0.0197,0.014,0.0126,0.0123,0.0172,0.0174,0.0176,0.0172,0.0173,0,0,0,0,0,0.0379,0.0393,0.0376,0.0386,0.0382,0.0359,0.0352,0.0342,0.0316,0.0306,0.0275,0.0237,0.0197,0.0179,0.0139,0.0112,0.005,0.01,0.0102,0.0104,0.0092,-0.0018,-0.0028,0.0072,0.0072,0.0072,0,0,0.0387,0.0389,0.0396,0.0391,0.0378,0.0377,0.0355,0.0349,0.0347,0.0299,0.0285,0.0242,0.0189,0.0157,0.014,0.0136,0.0048,0.0102,0.0105,0.009,-0.0021,-0.0031,-0.004,0.0071,0.0071,0.0071,0,0,0.0406,0.0412,0.0428,0.0419,0.0409,0.0395,0.0396,0.0372,0.0362,0.0341,0.0301,0.0254,0.0209,0.0162,0.0134,0.012,0.006,0.0114,0.0125,0.002,0.001,0.0001,-0.0065,-0.0081,0.0119,0.0119,0.0119,0,0.0416,0.0434,0.0426,0.0434,0.043,0.0407,0.0412,0.0399,0.0366,0.0345,0.0345,0.024,0.0206,0.014,0.0142,0.0124,0.0064,0.0127,0.0022,0.0012,0.0001,-0.0065,-0.0083,0.0122,0.0121,0.0121,0.0121,0,0.0441,0.0455,0.0461,0.0469,0.0462,0.0462,0.0443,0.0431,0.0417,0.039,0.0326,0.0266,0.0197,0.0185,0.0165,0.0078,0.0061,0.0037,0.002,-0.0005,-0.0073,-0.0093,0.0125,0.0124,0.0124,0.0123,0,0,0.0454,0.0477,0.0479,0.0483,0.0481,0.047,0.047,0.0443,0.0424,0.0385,0.0334,0.0271,0.0225,0.0187,0.0142,0.0061,-0.0041,0.0028,0.0022,-0.003,-0.0257,-0.0185,-0.02,-0.0088,-0.0092,-0.0095,-0.0266,0,0.0472,0.0498,0.0505,0.0516,0.0519,0.0502,0.0496,0.0468,0.0437,0.0383,0.0305,0.0244,0.0232,0.0191,0.0108,-0.0014,-0.0095,0.0009,-0.0233,-0.024,-0.0168,-0.0221,-0.0107,-0.0281,-0.0285,-0.0289,-0.0291,0,0.0486,0.0502,0.0525,0.0526,0.0526,0.0533,0.05,0.0494,0.0422,0.0392,0.0314,0.0246,0.0133,0.0119,-0.0098,-0.0033,-0.014,-0.023,-0.0239,-0.0211,-0.0205,-0.0261,-0.0328,-0.0325,-0.0322,-0.032,-0.0317,0,0.048,0.0507,0.0527,0.053,0.0534,0.0536,0.0537,0.0492,0.0481,0.039,0.0353,0.021,0.0134,-0.0032,-0.0174,-0.0161,-0.0419,-0.0429,-0.0467,-0.0462,-0.05,-0.0489,-0.0606,-0.0605,-0.0605,-0.0604,-0.0604,0,0.0483,0.0493,0.053,0.0537,0.0554,0.0546,0.0547,0.0527,0.0481,0.0462,0.0359,0.0299,0.0087,-0.0064,-0.0206,-0.0379,-0.0447,-0.0483,-0.0515,-0.0466,-0.045,-0.0512,-0.0499,-0.0611,-0.0609,-0.0608,-0.0607,0,0.0465,0.0491,0.0513,0.0539,0.0556,0.0564,0.0593,0.0588,0.0543,0.0509,0.0479,0.0334,0.0148,-0.0047,-0.0321,-0.0399,-0.0588,-0.0633,-0.0544,-0.0565,-0.0557,-0.0539,-0.0719,-0.0718,-0.0717,-0.0717,-0.0716,0,0.0458,0.0473,0.0528,0.0558,0.058,0.0607,0.0636,0.0625,0.0626,0.0543,0.0522,0.0343,0.0236,-0.0094,-0.0294,-0.0572,-0.0591,-0.0683,-0.0643,-0.0562,-0.0576,-0.0559,-0.0542,-0.0715,-0.0715,-0.0715,-0.0715,0,0.0447,0.0475,0.0508,0.0573,0.0621,0.0664,0.0702,0.0701,0.0683,0.0648,0.0547,0.0381,0.0179,-0.0069,-0.0274,-0.0468,-0.0627,-0.0677,-0.068,-0.0643,-0.056,-0.057,-0.0555,-0.0712,-0.0713,-0.0713,-0.0713,0,0.0453,0.0474,0.0531,0.0581,0.0648,0.0694,0.0712,0.0715,0.0707,0.0628,0.0599,0.0384,0.0256,-0.0015,-0.0207,-0.0385,-0.043,-0.0477,-0.0492,-0.0497,-0.0361,-0.0219,-0.0313,0,0,0,0,0,0.0451,0.0479,0.0535,0.0589,0.0657,0.0692,0.0746,0.0755,0.0742,0.069,0.0645,0.0469,0.0188,0.0049,-0.0121,-0.0204,-0.0468,-0.0406,-0.0531,-0.0699,-0.0702,-0.0572,0,0,0,0,0,0,0.0453,0.0505,0.0528,0.0589,0.0626,0.0696,0.0731,0.073,0.0692,0.0659,0.0502,0.0443,0.0154,0.0277,-0.0124,-0.0179,-0.0274,-0.054,-0.0543,-0.0697,-0.07,-0.0702,-0.057,0,0,0,0,0]}]]